User: anonymous   Login
Location: Unspecified
(0.0000°N, 0.0000°E)
Time: 03:06:49
(UTC+00:00)
Language:

Vela 4A - Orbit

View from above orbital plane
View from above orbital plane
View from above satellite
View from above satellite

Ground track
Ground track

The orbit data is extracted from the following two-line orbital elements,

1  2765U 67040A   16181.73249219 -.00000577 +00000-0 +00000-0 0  9991
2  2765 005.9499 016.0027 4764814 181.0739 000.6930 00.21564437005697
Epoch (UTC): 29 June 2016 17:34:47
Eccentricity: 0.4764814
inclination: 5.9499°
perigee height: 55116 km
apogee height: 167055 km
right ascension of ascending node: 16.0027°
argument of perigee: 181.0739°
revolutions per day: 0.21564437
mean anomaly at epoch: 0.6930°
orbit number at epoch: 569

The dashed part of the orbit path shows where the satellite is in the earth's shadow,  

DLR